Hourly Data Report for September 22, 2017

All times are specified in Local Standard Time (LST). Add 1 hour to adjust for Daylight Saving Time where and when it is observed.

IQALUIT CLIMATE
NUNAVUT

63°44'50.000" N
68°32'40.000" W
33.50 m
2402592
71321
XFB

Download Data

Hourly Data (September 2017)
Hourly Data Report for September 22, 2017
Temp Definition
°C
Dew Point Temp Definition
°C
Rel Hum Definition
%
Wind Dir Definition
10's deg

Wind Spd Definition
km/h
Visibility Definition
km
Stn Press Definition
kPa
Hmdx Definition


Wind Chill Definition


Weather Definition


TIME
00:00 1.0 0.3 95 25 5   100.94     LegendNANA
01:00 1.0 0.3 95 31 4   100.92     LegendNANA
02:00 1.1 0.4 95 30 7   100.92     LegendNANA
03:00 1.6 0.8 94 28 7   100.91     LegendNANA
04:00 2.1 0.6 90 34 16   100.89     LegendNANA
05:00 2.2 1.0 92 34 17   100.90     LegendNANA
06:00 2.5 1.2 91 33 17   100.92     LegendNANA
07:00 3.0 0.8 86 33 22   100.95     LegendNANA
08:00 3.0 0.2 82 32 18   100.96     LegendNANA
09:00 3.9 -0.7 72 32 23   100.97     LegendNANA
10:00 4.4 -1.0 68 33 29   100.99     LegendNANA
11:00 4.5 -2.3 61 34 23   100.99     LegendNANA
12:00 4.0 -3.3 59 32 23   100.98     LegendNANA
13:00 5.6 -5.4 45 33 25   100.96     LegendNANA
14:00 5.5 -5.2 46 34 24   100.95     LegendNANA
15:00 5.2 -5.6 45 34 23   100.96     LegendNANA
16:00 4.4 -5.6 48 1 27   100.97     LegendNANA
17:00 3.3 -5.4 53 1 18   101.00     LegendNANA
18:00 1.7 -4.6 63 1 12   101.04     LegendNANA
19:00 1.1 -4.9 64 2 15   101.07     LegendNANA
20:00 -1.1 -4.8 76 1 12   101.09   -5 LegendNANA
21:00 -1.0 -5.1 73 36 8   101.10   -4 LegendNANA
22:00 -2.0 -5.4 78 36 13   101.08   -6 LegendNANA
23:00 -1.1 -5.3 73 36 13   101.06   -5 LegendNANA

Notes on Data Quality.

Legend

  • E = Estimated
  • M = Missing
  • NA = Not Available
  • ‡ = Partner data that is not subject to review by the National Climate Archives
Date modified: